NIEUW!!! Volg onze weer- en natuurfoto's op Instagram @ weerstationmaaseik.be

WS Maaseik 1 Meer informatie WS Maaseik 1


WS Maaseik 2 Meer informatie WS Maaseik 2


Regen radar Meer informatie rain snow radar


Bezoek onze andere website:

Vorige versie
weerstation Maaseik


Bezoek ook eens deze sites:

Weerstation Geleen



Het weer levert geen direct gevaar op.    Er zijn geen waarschuwingen afgegeven.

15 daagse weersverwachting Thun (CH)

  • Overzicht
  • Per uur
  • 15 dagen
  • Extra
  • Vergelijk
  • Kaarten
  • Dagkaart
  • Meer »
  • Info
  • Statistieken
  • Directe link
    Temp 6h Neerslag Wind  
 07:16     19:30    Daglengte: 12:14 Vandaag
14:00
23°
 
2
20:00
18°
2.2 mm
1
 07:17     19:28    Daglengte: 12:11 Morgen
02:00
15°
3.6 mm
1
08:00
15°
3.2 mm
1
14:00
20°
2.6 mm
1
20:00
17°
3.1 mm
1
 07:18     19:26    Daglengte: 12:08 Dinsdag 22 Sep
02:00
14°
 
1
08:00
15°
 
1
14:00
20°
0.7 mm
1
20:00
16°
12.9 mm
1
 07:20     19:24    Daglengte: 12:04 Woensdag 23 Sep
02:00
14°
25.8 mm
1
Locatie info
Region: Thun
Latitude: 46.7570°N
Longitude: 7.6303°E
565 masl
Postcode: 3600
Temp/Neerslag /Baro Onweer/Dauwpunt
    Temp Baro 1h Neerslag Dauwpunt Wind UV Bewolking  
 07:16     19:30    Daglengte: 12:14 Vandaag
09:00
16°
1015.0 hPa   13.2°
1
Windvlaag: -0.1 m/s
9%
10:00
18°
1015.1 hPa   13.9°
1
Windvlaag: -0.4 m/s
5%
11:00
20°
1014.9 hPa   14.2°
1
Windvlaag: -0.3 m/s
6%
12:00
21°
1014.4 hPa   15.2°
1
Windvlaag: -0.4 m/s
15%
13:00
22°
1014.1 hPa   15.8°
2
Windvlaag: -0.7 m/s
17%
14:00
23°
1013.7 hPa
28%
16.2°
2
Windvlaag: -1 m/s
20%
15:00
23°
1013.6 hPa
39%
16.4°
2
Windvlaag: -1 m/s
36%
16:00
22°
1013.5 hPa 0.4 mm
41%
16.5°
2
Windvlaag: -1 m/s
48% warningclass
17:00
21°
1013.5 hPa 0.3 mm
74%
16.9°
1
Windvlaag: -0.6 m/s
37% warningclass
18:00
20°
1013.8 hPa 0.5 mm
80%
16.8°
1
Windvlaag: -0.3 m/s
55% warningclass
19:00
19°
1014.1 hPa 0.9 mm
80%
16.6°
1
Windvlaag: 0 m/s
60% warningclass
20:00
18°
1014.3 hPa
35%
16.0°
1
Windvlaag: 0.5 m/s
67%
21:00
18°
1014.7 hPa
71%
15.6°
1
Windvlaag: 0.8 m/s
50%
22:00
17°
1015.0 hPa 0.9 mm
70%
15.0°
1
Windvlaag: 0.9 m/s
56%
23:00
16°
1015.1 hPa 0.9 mm
21%
14.6°
1
Windvlaag: 1.5 m/s
55%
 07:17     19:28    Daglengte: 12:11 Morgen
00:00
16°
1015.3 hPa 0.6 mm
18%
14.2°
1
Windvlaag: 0.9 m/s
45%
01:00
16°
1015.3 hPa 0.6 mm
20%
13.9°
1
Windvlaag: 0.8 m/s
43%
02:00
15°
1015.4 hPa 0.5 mm
59%
13.6°
1
Windvlaag: 0.3 m/s
32%
03:00
15°
1015.4 hPa
64%
13.3°
1
Windvlaag: -0 m/s
41%
04:00
15°
1015.4 hPa 0.8 mm
71%
13.0°
1
Windvlaag: 0.5 m/s
46%
05:00
15°
1015.3 hPa 0.7 mm
72%
13.0°
1
Windvlaag: 0.8 m/s
46%
06:00
14°
1015.3 hPa
68%
12.8°
1
Windvlaag: 0.3 m/s
48%
07:00
14°
1015.5 hPa 0.8 mm
17%
12.9°
1
Windvlaag: 0 m/s
47%
08:00
15°
1015.9 hPa 1.0 mm
18%
13.3°
1
Windvlaag: -0.5 m/s
48%
09:00
16°
1016.2 hPa 1.1 mm
59%
14.0°
0
Windvlaag: 0.1 m/s
57%
10:00
17°
1016.2 hPa
62%
14.3°
0
Windvlaag: 0.2 m/s
58%
11:00
18°
1016.2 hPa
70%
14.1°
0
Windvlaag: 0.3 m/s
65%
12:00
19°
1016.0 hPa 0.5 mm
73%
14.3°
1
Windvlaag: 0.1 m/s
50%
13:00
20°
1015.6 hPa 0.5 mm
77%
14.8°
1
Windvlaag: -0.6 m/s
50%
14:00
20°
1015.3 hPa 0.6 mm
81%
15.3°
1
Windvlaag: -0.8 m/s
38%
15:00
20°
1014.9 hPa 0.6 mm
81%
15.3°
1
Windvlaag: -0.8 m/s
27%
16:00
20°
1014.6 hPa 1.0 mm
80%
15.4°
1
Windvlaag: -0.9 m/s
26%
17:00
20°
1014.5 hPa 0.6 mm
80%
15.9°
1
Windvlaag: 0.8 m/s
32%
18:00
20°
1014.5 hPa 0.8 mm
80%
16.1°
1
Windvlaag: 2.1 m/s
42%
19:00
19°
1014.8 hPa
80%
15.6°
1
Windvlaag: 1.9 m/s
42%
20:00
17°
1015.0 hPa
82%
15.3°
1
Windvlaag: 1.6 m/s
41%
21:00
16°
1015.3 hPa
78%
15.1°
1
Windvlaag: 1.5 m/s
53%
22:00
15°
1015.4 hPa
65%
14.6°
1
Windvlaag: 1.3 m/s
47%
23:00
15°
1015.4 hPa
63%
14.2°
1
Windvlaag: 1.1 m/s
40%
 07:18     19:26    Daglengte: 12:08 Dinsdag 22 Sep
00:00
15°
1015.3 hPa
66%
13.6°
1
Windvlaag: 0.8 m/s
40% warningclass
01:00
15°
1015.1 hPa
69%
13.2°
1
Windvlaag: 0.5 m/s
35%
02:00
14°
1014.9 hPa
70%
12.9°
1
Windvlaag: 0.1 m/s
38%
03:00
14°
1014.8 hPa
71%
12.9°
1
Windvlaag: 0.6 m/s
40%
04:00
14°
1014.6 hPa
68%
12.7°
1
Windvlaag: 0.7 m/s
48%
05:00
14°
1014.3 hPa
84%
12.1°
1
Windvlaag: 0.8 m/s
57%
06:00
14°
1014.3 hPa
88%
11.9°
1
Windvlaag: 0.7 m/s
60%
07:00
14°
1014.3 hPa
88%
12.0°
1
Windvlaag: 0.6 m/s
81%
08:00
15°
1014.3 hPa
81%
12.8°
1
Windvlaag: 0.3 m/s
75%
09:00
16°
1014.3 hPa
74%
12.9°
1
Windvlaag: 0.3 m/s
56%
10:00
17°
1014.2 hPa
83%
13.3°
1
Windvlaag: 0.1 m/s
48%
11:00
18°
1013.8 hPa
86%
13.8°
0
Windvlaag: 0.1 m/s
33%
12:00
19°
1013.5 hPa
95%
14.1°
1
Windvlaag: -0.4 m/s
49%
13:00
20°
1012.9 hPa
94%
14.6°
1
Windvlaag: -0.4 m/s
53%
14:00
20°
1012.2 hPa 0.7 mm
98%
14.5°
1
Windvlaag: -0.7 m/s
72%
15:00
20°
1011.6 hPa 1.7 mm
100%
14.6°
1
Windvlaag: -0.8 m/s
83% warningclass
16:00
19°
1011.6 hPa 3.7 mm
95%
15.1°
2
Windvlaag: -0.9 m/s
86%
17:00
18°
1011.3 hPa 1.6 mm
98%
14.7°
1
Windvlaag: -0.7 m/s
79% warningclass
18:00
18°
1011.2 hPa
100%
14.5°
1
Windvlaag: 1.4 m/s
96%
19:00
17°
1011.1 hPa 3.3 mm
100%
15.2°
2
Windvlaag: 2.1 m/s
95%
20:00
16°
1011.2 hPa 2.7 mm
100%
14.0°
1
Windvlaag: 1.4 m/s
85%
21:00
16°
1011.3 hPa 6.2 mm
100%
13.7°
1
Windvlaag: 2.4 m/s
95%
22:00
15°
1011.1 hPa
100%
13.1°
1
Windvlaag: 2.4 m/s
82%
23:00
15°
1011.0 hPa
95%
12.7°
1
Windvlaag: 2.6 m/s
91%
 07:20     19:24    Daglengte: 12:04 Woensdag 23 Sep
00:00
15°
1010.9 hPa 6.1 mm
92%
12.6°
1
Windvlaag: 2.2 m/s
94%
01:00
15°
1010.8 hPa 6.3 mm
95%
12.5°
1
Windvlaag: 1.1 m/s
96%
02:00
14°
1010.7 hPa 7.2 mm
98%
12.3°
1
Windvlaag: 0.7 m/s
98%
03:00
14°
1010.3 hPa 6.9 mm
100%
12.4°
1
Windvlaag: 6.2 m/s
96%
04:00
14°
1010.2 hPa 7.1 mm
98%
12.3°
1
Windvlaag: 6.2 m/s
97%
05:00
14°
1010.1 hPa 7.2 mm
99%
12.2°
1
Windvlaag: 6.6 m/s
92%
06:00
14°
1010.0 hPa 7.0 mm
98%
12.1°
1
Windvlaag: 9.1 m/s
84%
07:00
13°
1010.0 hPa
94%
12.2°
1
Windvlaag: 10.2 m/s
85%
08:00
13°
1010.0 hPa
98%
12.2°
1
Windvlaag: 1.4 m/s
86%
Temp/Neerslag /Baro Onweer/Dauwpunt
    Temp Baro Neerslag Dauwpunt Wind Bewolking  
 07:16     19:30    Daglengte: 12:14 Vandaag
11:00
20°
1014.9 hPa   14.2°
1
6%
14:00
23°
1013.7 hPa   16.2°
2
20%
17:00
21°
1013.5 hPa 0.8 mm 16.9°
1
37% warningclass
20:00
18°
1014.3 hPa 1.5 mm 16.0°
1
67%
23:00
16°
1015.1 hPa 1.8 mm 14.6°
1
55%
 07:17     19:28    Daglengte: 12:11 Morgen
02:00
15°
1015.4 hPa 1.8 mm 13.6°
1
32%
05:00
15°
1015.3 hPa 1.5 mm 13.0°
1
46%
08:00
15°
1015.9 hPa 1.7 mm 13.3°
1
48%
11:00
18°
1016.2 hPa 1.1 mm 14.1°
0
65%
14:00
20°
1015.3 hPa 1.6 mm 15.3°
1
38%
17:00
20°
1014.5 hPa 2.3 mm 15.9°
1
32%
20:00
17°
1015.0 hPa 0.8 mm 15.3°
1
41%
23:00
15°
1015.4 hPa   14.2°
1
40%
 07:18     19:26    Daglengte: 12:08 Dinsdag 22 Sep
02:00
14°
1014.9 hPa   12.9°
1
38%
05:00
14°
1014.3 hPa   12.1°
1
57%
08:00
15°
1014.3 hPa   12.8°
1
75%
11:00
18°
1013.8 hPa   13.8°
0
33%
14:00
20°
1012.2 hPa 0.7 mm 14.5°
1
72%
17:00
18°
1011.3 hPa 6.9 mm 14.7°
1
79% warningclass
20:00
16°
1011.2 hPa 6.0 mm 14.0°
1
85%
23:00
15°
1011.0 hPa 6.2 mm 12.7°
1
91%
 07:20     19:24    Daglengte: 12:04 Woensdag 23 Sep
02:00
14°
1010.7 hPa 19.7 mm 12.3°
1
98%
05:00
14°
1010.1 hPa 21.3 mm 12.2°
1
92%
08:00
13°
1010.0 hPa 23.9 mm 12.2°
1
86%
11:00
17°
1009.3 hPa 28.2 mm 13.8°
1
79%
14:00
18°
1008.8 hPa 29.1 mm 14.6°
1
79%
17:00
17°
1008.1 hPa 32.0 mm 14.1°
1
77%
20:00
14°
1007.7 hPa 33.2 mm 13.1°
1
75%
23:00
13°
1007.5 hPa 33.2 mm 11.9°
1
75%
 07:21     19:22    Daglengte: 12:01 Donderdag 24 Sep
02:00
12°
1007.2 hPa 33.2 mm 10.7°
1
75%
05:00
13°
1008.2 hPa 34.8 mm 11.4°
1
83%
08:00
14°
1009.2 hPa 36.0 mm 12.0°
1
91%
11:00
15°
1009.1 hPa 36.1 mm 11.4°
2
90%
14:00
16°
1008.9 hPa 36.9 mm 10.5°
2
90%
17:00
15°
1008.0 hPa 38.8 mm 10.3°
1
85%
20:00
14°
1007.0 hPa 42.1 mm 9.9°
0
81%
23:00
13°
1006.9 hPa 42.2 mm 9.0°
1
60%
 07:22     19:20    Daglengte: 11:58 Vrijdag 25 Sep
02:00
12°
1006.6 hPa 42.9 mm 8.3°
2
39%
05:00
11°
1006.7 hPa 46.2 mm 7.7°
1
65%
08:00
1006.8 hPa 48.2 mm 6.9°
1
91%
11:00
10°
Voelt als: 9.2°
1007.5 hPa 54.8 mm 6.2°
1
87%
14:00
10°
1008.1 hPa 56.6 mm 5.7°
2
83%
17:00
Voelt als: 7.3°
1009.2 hPa 58.8 mm 5.7°
2
87%
20:00
Voelt als: 5.1°
1010.4 hPa 60.8 mm 5.6°
3
92%
23:00
Voelt als: 4.3°
1011.0 hPa 62.7 mm 5.4°
3
92%
 07:24     19:18    Daglengte: 11:54 Zaterdag 26 Sep
02:00
Voelt als: 3.4°
1011.5 hPa 66.7 mm 5.1°
3
92%
05:00
Voelt als: 3.2°
1011.8 hPa 70.5 mm 4.9°
3
91%
08:00
Voelt als: 3.2°
1012.2 hPa 74.2 mm 4.6°
3
90%
11:00
Voelt als: 4.2°
1012.2 hPa 75.9 mm 5.1°
2
90%
14:00
Voelt als: 4.9°
1012.2 hPa 79.0 mm 5.5°
2
90%
17:00
Voelt als: 5.7°
1013.2 hPa 80.3 mm 5.6°
2
91%
20:00
Voelt als: 6.1°
1014.3 hPa 80.4 mm 5.4°
2
91%
23:00
Voelt als: 5.7°
1015.1 hPa 80.4 mm 5.0°
1
91%
 07:25     19:16    Daglengte: 11:51 Zondag 27 Sep
02:00
Voelt als: 5.5°
1015.8 hPa 80.4 mm 4.9°
1
92%
05:00
Voelt als: 5.7°
1016.4 hPa 80.5 mm 5.1°
1
92%
08:00
Voelt als: 5.8°
1017.0 hPa 161.4 mm 5.4°
1
92%
14:00
11°
1017.0 hPa 162.5 mm 5.1°
2
90%
20:00
1016.8 hPa 165.9 mm 2.4°
1
34%
 07:26     19:14    Daglengte: 11:48 Maandag 28 Sep
02:00
Voelt als: 6.8°
1016.5 hPa 166.9 mm 2.4°
1
67%
08:00
1017.1 hPa 166.9 mm 4.3°
1
68%
14:00
17°
1015.7 hPa 172.4 mm 8.4°
2
84%
20:00
14°
1017.4 hPa 195.0 mm 8.6°
1
14%
 07:28     19:12    Daglengte: 11:44 Dinsdag 29 Sep
02:00
1018.8 hPa 209.2 mm 7.3°
0
52%
08:00
10°
1019.6 hPa 210.0 mm 7.6°
1
66%
14:00
12°
1021.8 hPa 211.6 mm 9.9°
2
1%
20:00
Voelt als: 6.3°
1023.5 hPa 213.1 mm 5.7°
1
1%
 07:29     19:10    Daglengte: 11:41 Woensdag 30 Sep
02:00
Voelt als: 2.2°
1024.2 hPa 213.3 mm 2.4°
2
0%
08:00
Voelt als: 6.7°
1018.7 hPa 0.7 mm 6.0°
2
52%
14:00
16°
1016.1 hPa 0.7 mm 10.7°
1
47%
20:00
10°
1016.3 hPa 2.4 mm 8.6°
1
55%
 07:30     19:08    Daglengte: 11:38 Donderdag 01 Okt
02:00
Voelt als: 8.1°
1016.4 hPa 1.4 mm 7.2°
2
56%
08:00
Voelt als: 7.6°
1015.8 hPa 1.4 mm 6.4°
2
53%
14:00
17°
1014.0 hPa 1.1 mm 10.9°
1
54%
20:00
11°
1014.9 hPa 1.6 mm 9.3°
1
63%
 07:32     19:06    Daglengte: 11:34 Vrijdag 02 Okt
02:00
Voelt als: 8.7°
1015.7 hPa 0.9 mm 7.7°
2
56%
08:00
Voelt als: 8.2°
1015.3 hPa 1.3 mm 7.1°
2
51%
14:00
17°
1013.7 hPa 1.5 mm 11.5°
0
53%
20:00
11°
1015.0 hPa 2.3 mm 9.6°
1
58%
 07:33     19:04    Daglengte: 11:31 Zaterdag 03 Okt
02:00
10°
1016.6 hPa 3.0 mm 8.5°
2
51%
08:00
10°
Voelt als: 9.3°
1016.9 hPa 2.4 mm 8.0°
2
42%
14:00
19°
1015.4 hPa 1.9 mm 12.5°
0
46%
20:00
13°
1015.5 hPa 1.9 mm 10.8°
1
54%
 07:34     19:02    Daglengte: 11:28 Zondag 04 Okt
02:00
12°
1016.2 hPa 2.0 mm 9.9°
2
55%
08:00
11°
1015.9 hPa 1.6 mm 9.2°
2
58%
14:00
19°
1014.7 hPa 1.3 mm 12.7°
0
61%
20:00
12°
1015.4 hPa 3.0 mm 10.6°
0
55%
 07:36     19:00    Daglengte: 11:24 Maandag 05 Okt
02:00
11°
1016.4 hPa 2.5 mm 9.1°
1
52%
08:00
10°
1016.1 hPa 1.8 mm 8.4°
1
55%
  CAPE Lifted Index Hail Supercell Tornado SRH 3km CL BTM PRES CL TOP PRES Swiss DWD icon SMHI TS
 07:16     19:30    Daglengte: 12:14 Vandaag
09:00 0 J/kg -0.2 K 0 % 0 % 0 % 0 m²/s² 0 0 0.79 1
10:00 0 J/kg -0.5 K 0 % 0 % 0 % 0 m²/s² 0 0 0.7 1
11:00 3 J/kg -0.5 K 0 % 0 % 0 % 0 m²/s² 0 0 0.49 1
12:00 59 J/kg -0.5 K 0 % 0 % 0 % 0 m²/s² 0 0 0.46 2
13:00 350 J/kg -1.6 K 0 % 0 % 0 % 0 m²/s² 0 0 -1.06 1
14:00 622 J/kg -2.7 K 0 % 0 % 0 % 0 m²/s² 0 0 -2.22 2
15:00 783 J/kg -3.1 K 0 % 0 % 0 % 0 m²/s² 0 0 -2.38 3
16:00 1020 J/kg -3.7 K 0 % 0 % 0 % 0 m²/s² 0 0 -2.89 80
17:00 1139 J/kg -3.9 K 0 % 0 % 0 % 0 m²/s² 0 0 -3.09 3
18:00 1212 J/kg -4.8 K 0 % 0 % 0 % 0 m²/s² 0 0 -4.26 80
19:00 829 J/kg -3.9 K 0 % 0 % 0 % 0 m²/s² 0 0 -3.06 80
20:00 488 J/kg -3.7 K 0 % 0 % 0 % 0 m²/s² 0 0 -3.04 3
21:00 211 J/kg -3.1 K 0 % 0 % 0 % 0 m²/s² 0 0 -2.29 3
22:00 14 J/kg -2.8 K 0 % 0 % 0 % 0 m²/s² 0 0 -1.9 3
23:00 0 J/kg -2.3 K 0 % 0 % 0 % 0 m²/s² 0 0 -1.13 3
 07:17     19:28    Daglengte: 12:11 Morgen
00:00 0 J/kg -2.1 K 0 % 0 % 0 % 0 m²/s² 0 0 -0.84 3
01:00 0 J/kg -1.7 K 0 % 0 % 0 % 0 m²/s² 0 0 -0.38 3
02:00 0 J/kg -1.4 K 0 % 0 % 0 % 0 m²/s² 0 0 0.04 80
03:00 0 J/kg -1.0 K 0 % 0 % 0 % 0 m²/s² 0 0 0.11 3
04:00 0 J/kg -0.3 K 0 % 0 % 0 % 0 m²/s² 0 0 0.84 3
05:00 0 J/kg 0.4 K 0 % 0 % 0 % 0 m²/s² 0 0 1.87 3
06:00 0 J/kg 0.0 K 0 % 0 % 0 % 0 m²/s² 0 0 1.32 2
07:00 0 J/kg 0.3 K 0 % 0 % 0 % 0 m²/s² 0 0 1.83 2
08:00 0 J/kg 0.7 K 0 % 0 % 0 % 0 m²/s² 0 0 2.17 3
09:00 0 J/kg 0.9 K 0 % 0 % 0 % 0 m²/s² 0 0 2.55 3
10:00 0 J/kg 0.3 K 0 % 0 % 0 % 0 m²/s² 0 0 2.01 3
11:00 26 J/kg -0.3 K 0 % 0 % 0 % 0 m²/s² 0 0 1.29 3
12:00 190 J/kg -1.1 K 0 % 0 % 0 % 0 m²/s² 0 0 0.43 3
13:00 405 J/kg -2.0 K 0 % 0 % 0 % 0 m²/s² 0 0 -0.41 3
14:00 506 J/kg -2.4 K 0 % 0 % 0 % 0 m²/s² 0 0 -0.69 3
15:00 527 J/kg -2.4 K 0 % 0 % 0 % 0 m²/s² 0 0 -0.87 3
16:00 491 J/kg -1.9 K 0 % 0 % 0 % 0 m²/s² 0 0 -0.37 3
17:00 501 J/kg -2.1 K 0 % 0 % 0 % 0 m²/s² 0 0 -0.99 3
18:00 612 J/kg -2.7 K 0 % 0 % 0 % 0 m²/s² 0 0 -0.93 3
19:00 122 J/kg -1.5 K 0 % 0 % 0 % 0 m²/s² 0 0 -0.18 3
20:00 0 J/kg -0.5 K 0 % 0 % 0 % 0 m²/s² 0 0 0.88 80
21:00 0 J/kg -0.1 K 0 % 0 % 0 % 0 m²/s² 0 0 1.31 3
22:00 12 J/kg -0.5 K 0 % 0 % 0 % 0 m²/s² 0 0 0.49 80
23:00 0 J/kg -0.3 K 0 % 0 % 0 % 0 m²/s² 0 0 0.24 80
 07:18     19:26    Daglengte: 12:08 Dinsdag 22 Sep
00:00 0 J/kg 0.1 K 0 % 0 % 0 % 0 m²/s² 0 0 1 95
01:00 0 J/kg 0.1 K 0 % 0 % 0 % 0 m²/s² 0 0 0.91 3
02:00 0 J/kg 0.7 K 0 % 0 % 0 % 0 m²/s² 0 0 1.06 3
03:00 0 J/kg 0.4 K 0 % 0 % 0 % 0 m²/s² 0 0 0.7 3
04:00 0 J/kg 0.5 K 0 % 0 % 0 % 0 m²/s² 0 0 0.8 3
05:00 0 J/kg 0.8 K 0 % 0 % 0 % 0 m²/s² 0 0 1.19 3
06:00 0 J/kg 0.2 K 0 % 0 % 0 % 0 m²/s² 0 0 0.29 3
07:00 0 J/kg -0.6 K 0 % 0 % 0 % 0 m²/s² 0 0 -0.42 3
08:00 0 J/kg -1.1 K 0 % 0 % 0 % 0 m²/s² 0 0 -1.1 3
09:00 0 J/kg -0.5 K 0 % 0 % 0 % 0 m²/s² 0 0 -0.32 3
10:00 57 J/kg 0.0 K 0 % 0 % 0 % 0 m²/s² 0 0 0.48 3
11:00 254 J/kg -1.2 K 0 % 0 % 0 % 0 m²/s² 0 0 -0.45 3
12:00 566 J/kg -2.2 K 0 % 0 % 0 % 0 m²/s² 0 0 -1.84 3
13:00 746 J/kg -2.7 K 0 % 0 % 0 % 0 m²/s² 0 0 -2.34 2
14:00 735 J/kg -2.7 K 0 % 0 % 0 % 0 m²/s² 0 0 -1.95 3
15:00 766 J/kg -2.8 K 0 % 0 % 0 % 0 m²/s² 0 0 -2.53 3
16:00 187 J/kg -2.4 K 0 % 0 % 0 % 0 m²/s² 0 0 -2.31 3
17:00 735 J/kg -3.1 K 0 % 0 % 0 % 0 m²/s² 0 0 -2.26 3
18:00 465 J/kg -2.7 K 0 % 0 % 0 % 0 m²/s² 0 0 -1.98 3
19:00 160 J/kg -1.1 K 0 % 0 % 0 % 0 m²/s² 0 0 -0.83 3
20:00 2 J/kg 0.7 K 0 % 0 % 0 % 0 m²/s² 0 0 1.21 3
21:00 11 J/kg -0.6 K 0 % 0 % 0 % 0 m²/s² 0 0 -0.48 3
22:00 0 J/kg 0.2 K 0 % 0 % 0 % 0 m²/s² 0 0 0.71 3
23:00 0 J/kg -0.2 K 0 % 0 % 0 % 0 m²/s² 0 0 0.46 3
 07:20     19:24    Daglengte: 12:04 Woensdag 23 Sep
00:00 0 J/kg -0.1 K 0 % 0 % 0 % 0 m²/s² 0 0 0.23 3
01:00 0 J/kg 0.0 K 0 % 0 % 0 % 0 m²/s² 0 0 0.03 80
02:00 0 J/kg 0.5 K 0 % 0 % 0 % 0 m²/s² 0 0 0.53 80
03:00 0 J/kg 0.4 K 0 % 0 % 0 % 0 m²/s² 0 0 0.52 3
04:00 0 J/kg 0.7 K 0 % 0 % 0 % 0 m²/s² 0 0 1.09 80
05:00 0 J/kg 1.0 K 0 % 0 % 0 % 0 m²/s² 0 0 1.09 61
06:00 0 J/kg 0.6 K 0 % 0 % 0 % 0 m²/s² 0 0 0.63 3
07:00 0 J/kg -0.6 K 0 % 0 % 0 % 0 m²/s² 0 0 -0.6 3
08:00 45 J/kg -0.5 K 0 % 0 % 0 % 0 m²/s² 0 0 -0.38 3
Temp Baro Wind Neerslag
  EWN Forecast EWN WRFDA DWD ICON FMI HIRLAM MET Norway GFS
 07:16     19:30    Daglengte: 12:14 Vandaag
11:00 19.8° 1014.9 hPa 1.0 m/s 0.0 mm 21.2° 1014.2 hPa 0.6 m/s 0.0 mm 18.5° 1014.3 hPa 1.1 m/s -2.0 mm 21.0° 1015.3 hPa 1.6 m/s 0.0 mm 19.9° 1014.9 hPa 0.5 m/s 22.5° 1015.0 hPa 1.4 m/s
14:00 22.8° 1013.7 hPa 2.0 m/s 0.0 mm 23.1° 1013.5 hPa 2.1 m/s 0.0 mm 22.5° 1012.8 hPa 1.9 m/s 0.1 mm 23.6° 1014.2 hPa 2.3 m/s 0.0 mm 22.8° 1013.8 hPa 1.7 m/s 23.4° 1013.6 hPa 2.1 m/s
17:00 21.2° 1013.5 hPa 1.0 m/s 0.8 mm 23.0° 1011.9 hPa 3.6 m/s 0.3 mm 20.7° 1012.9 hPa 0.9 m/s 0.6 mm 22.4° 1014.1 hPa 0.2 m/s 0.0 mm 20.1° 1014.1 hPa 0.9 m/s 21.5° 1013.2 hPa 1.2 m/s
20:00 17.9° 1014.3 hPa 0.9 m/s 1.5 mm 18.2° 1013.5 hPa 1.7 m/s 3.3 mm 16.4° 1014.6 hPa 0.4 m/s 1.9 mm 19.0° 1015.1 hPa 1.0 m/s 0.0 mm 17.6° 1014.3 hPa 0.9 m/s 16.7° 1014.4 hPa 0.1 m/s
23:00 16.5° 1015.1 hPa 0.9 m/s 1.8 mm 14.4° 1013.7 hPa 1.4 m/s 5.8 mm 15.6° 1015.1 hPa 0.4 m/s 0.1 mm 16.5° 1015.9 hPa 1.1 m/s 0.0 mm 16.8° 1015.1 hPa 0.6 m/s 15.2° 1015.4 hPa 1.3 m/s
 07:17     19:28    Daglengte: 12:11 Morgen
02:00 15.3° 1015.4 hPa 0.7 m/s 1.8 mm 13.0° 1013.0 hPa 2.0 m/s 5.9 mm 14.3° 1015.3 hPa 0.3 m/s 0.3 mm 15.4° 1016.2 hPa 1.7 m/s 0.0 mm 15.4° 1015.6 hPa 0.1 m/s 14.6° 1015.5 hPa 1.5 m/s
05:00 14.5° 1015.3 hPa 0.7 m/s 1.5 mm 12.9° 1013.6 hPa 1.9 m/s 5.9 mm 14.3° 1015.0 hPa 0.4 m/s 0.2 mm 13.7° 1016.5 hPa 1.3 m/s 0.0 mm 14.8° 1015.5 hPa 0.6 m/s 14.4° 1015.4 hPa 1.2 m/s
08:00 14.9° 1015.9 hPa 0.5 m/s 1.7 mm 16.0° 1014.1 hPa 1.0 m/s 5.9 mm 14.2° 1015.4 hPa 0.4 m/s 0.0 mm 13.5° 1017.2 hPa 1.4 m/s 0.0 mm 15.0° 1016.0 hPa 0.4 m/s 14.6° 1015.7 hPa 1.2 m/s
11:00 18.0° 1016.2 hPa 0.5 m/s 1.1 mm 19.0° 1014.3 hPa 1.2 m/s 5.9 mm 16.7° 1016.1 hPa 0.4 m/s 0.1 mm 19.9° 1015.7 hPa 0.6 m/s 0.0 mm 18.0° 1016.6 hPa 0.3 m/s 20.4° 1015.7 hPa 0.8 m/s
14:00 20.2° 1015.3 hPa 0.9 m/s 1.6 mm 21.7° 1013.4 hPa 1.8 m/s 5.9 mm 18.7° 1015.3 hPa 0.6 m/s 0.2 mm 22.4° 1014.8 hPa 2.2 m/s 0.0 mm 20.1° 1015.5 hPa 0.7 m/s 22.1° 1014.5 hPa 1.5 m/s
17:00 20.2° 1014.5 hPa 1.3 m/s 2.3 mm 22.5° 1013.1 hPa 0.4 m/s 5.9 mm 19.5° 1014.4 hPa 0.6 m/s 0.6 mm 21.0° 1014.2 hPa 2.2 m/s 0.0 mm 19.6° 1014.8 hPa 1.3 m/s 18.6° 1014.1 hPa 0.4 m/s
20:00 17.0° 1015.0 hPa 1.2 m/s 0.8 mm 14.6° 1012.6 hPa 2.7 m/s 6.9 mm 17.1° 1015.4 hPa 0.4 m/s 1.0 mm 17.9° 1015.1 hPa 0.3 m/s 0.0 mm 16.9° 1015.3 hPa 1.2 m/s 16.3° 1014.7 hPa 1.4 m/s
23:00 14.9° 1015.4 hPa 0.8 m/s 0.0 mm 13.8° 1013.8 hPa 2.2 m/s 7.1 mm 14.9° 1015.7 hPa 0.7 m/s 1.2 mm 15.7° 1015.7 hPa 0.7 m/s 0.0 mm 14.3° 1015.2 hPa 0.5 m/s 15.8° 1015.6 hPa 1.2 m/s
 07:18     19:26    Daglengte: 12:08 Dinsdag 22 Sep
02:00 14.4° 1014.9 hPa 0.9 m/s 0.0 mm 13.6° 1012.8 hPa 1.7 m/s 7.1 mm 14.6° 1015.5 hPa 0.6 m/s 1.5 mm 14.4° 1015.3 hPa 1.4 m/s 0.0 mm 13.8° 1015.0 hPa 0.8 m/s 14.9° 1014.8 hPa 1.3 m/s
05:00 14.2° 1014.3 hPa 0.6 m/s 0.0 mm 12.9° 1011.5 hPa 0.9 m/s 7.1 mm 14.5° 1014.9 hPa 0.6 m/s 0.2 mm 14.3° 1014.5 hPa 0.5 m/s 14.8° 1014.2 hPa 1.3 m/s
08:00 14.6° 1014.3 hPa 0.8 m/s 0.0 mm 14.6° 1012.3 hPa 1.1 m/s 7.4 mm 14.1° 1014.5 hPa 0.5 m/s 0.2 mm 15.0° 1014.4 hPa 0.8 m/s 14.5° 1014.3 hPa 1.1 m/s
11:00 18.0° 1013.8 hPa 0.5 m/s 0.0 mm 18.4° 1011.1 hPa 2.0 m/s 10.4 mm 16.5° 1014.4 hPa 0.5 m/s 0.2 mm 18.7° 1013.8 hPa 0.2 m/s 18.4° 1013.2 hPa 0.1 m/s
14:00 20.1° 1012.2 hPa 0.9 m/s 0.7 mm 21.0° 1009.5 hPa 1.9 m/s 10.9 mm 18.6° 1012.8 hPa 0.6 m/s 0.6 mm 20.3° 1012.1 hPa 0.6 m/s 21.4° 1011.6 hPa 1.5 m/s
17:00 18.4° 1011.3 hPa 0.8 m/s 6.9 mm 18.4° 1007.9 hPa 2.0 m/s 22.2 mm 18.0° 1011.6 hPa 0.7 m/s 1.1 mm 18.7° 1011.4 hPa 0.6 m/s 20.0° 1009.8 hPa 0.8 m/s
20:00 16.1° 1011.2 hPa 1.3 m/s 6.0 mm 15.0° 1008.9 hPa 1.3 m/s 43.7 mm 16.2° 1011.6 hPa 0.7 m/s 0.4 mm 16.6° 1011.2 hPa 1.4 m/s 15.7° 1010.3 hPa 1.9 m/s
23:00 14.9° 1011.0 hPa 1.1 m/s 6.2 mm 13.7° 1008.8 hPa 3.3 m/s 54.2 mm 14.9° 1011.6 hPa 1.0 m/s 0.3 mm 15.4° 1010.9 hPa 0.8 m/s 14.8° 1010.8 hPa 2.3 m/s
 07:20     19:24    Daglengte: 12:04 Woensdag 23 Sep
02:00 14.1° 1010.7 hPa 1.0 m/s 19.7 mm 13.9° 1008.8 hPa 2.2 m/s 55.9 mm 14.2° 1011.4 hPa 1.2 m/s 1.6 mm 14.2° 1010.5 hPa 0.3 m/s 14.4° 1010.7 hPa 1.8 m/s
05:00 13.8° 1010.1 hPa 0.7 m/s 21.3 mm 14.0° 1007.2 hPa 2.1 m/s 61.7 mm 13.6° 1010.9 hPa 0.9 m/s 1.1 mm 13.8° 1010.4 hPa 0.3 m/s 14.4° 1010.1 hPa 1.2 m/s
08:00 13.4° 1010.0 hPa 0.6 m/s 23.9 mm 14.3° 1007.7 hPa 2.1 m/s 71.0 mm 13.2° 1010.6 hPa 0.6 m/s 0.3 mm 13.3° 1010.2 hPa 0.3 m/s 14.4° 1010.5 hPa 0.8 m/s
11:00 16.5° 1009.3 hPa 0.7 m/s 28.2 mm 16.6° 1009.2 hPa 0.7 m/s 16.1° 1010.7 hPa 0.4 m/s 28.2 mm
14:00 18.4° 1008.8 hPa 0.9 m/s 29.1 mm 18.2° 1008.7 hPa 0.9 m/s 20.2° 1009.7 hPa 0.9 m/s 29.1 mm
17:00 16.5° 1008.1 hPa 1.0 m/s 32.0 mm 16.3° 1008.1 hPa 1.1 m/s 18.9° 1008.6 hPa 0.4 m/s 32.0 mm
20:00 14.4° 1007.7 hPa 1.3 m/s 33.2 mm 14.4° 1007.5 hPa 1.3 m/s 14.4° 1009.5 hPa 1.0 m/s 33.2 mm
23:00 13.1° 1007.5 hPa 1.1 m/s 33.2 mm 13.0° 1007.1 hPa 0.9 m/s 13.7° 1011.0 hPa 2.2 m/s 33.2 mm
 07:21     19:22    Daglengte: 12:01 Donderdag 24 Sep
02:00 11.8° 1007.2 hPa 0.7 m/s 33.2 mm 11.6° 1006.8 hPa 0.6 m/s 13.5° 1011.5 hPa 1.6 m/s 33.2 mm
05:00 12.7° 1008.2 hPa 0.9 m/s 34.8 mm 12.6° 1007.8 hPa 0.9 m/s 13.6° 1011.9 hPa 0.7 m/s 34.8 mm
08:00 13.6° 1009.2 hPa 1.3 m/s 36.0 mm 13.6° 1008.9 hPa 1.3 m/s 13.5° 1012.8 hPa 1.0 m/s 36.0 mm
11:00 14.9° 1009.1 hPa 1.6 m/s 36.1 mm 14.6° 1008.8 hPa 1.6 m/s 17.0° 1011.7 hPa 1.5 m/s 36.1 mm
14:00 15.9° 1008.9 hPa 2.0 m/s 36.9 mm 15.7° 1008.8 hPa 2.0 m/s 18.0° 1010.5 hPa 1.5 m/s 36.9 mm
17:00 15.0° 1008.0 hPa 1.0 m/s 38.8 mm 14.9° 1007.8 hPa 1.1 m/s 16.0° 1009.2 hPa 0.9 m/s 38.8 mm
20:00 14.1° 1007.0 hPa 0.2 m/s 42.1 mm 14.1° 1006.9 hPa 0.1 m/s 13.7° 1008.7 hPa 0.9 m/s 42.1 mm
23:00 12.8° 1006.9 hPa 1.0 m/s 42.2 mm 12.9° 1006.7 hPa 1.0 m/s 11.5° 1008.6 hPa 1.3 m/s 42.2 mm
 07:22     19:20    Daglengte: 11:58 Vrijdag 25 Sep
02:00 11.7° 1006.6 hPa 1.9 m/s 42.9 mm 11.7° 1006.5 hPa 1.9 m/s 11.8° 1007.7 hPa 1.4 m/s 42.9 mm
05:00 10.6° 1006.7 hPa 1.3 m/s 46.2 mm 10.6° 1006.7 hPa 1.3 m/s 11.0° 1006.3 hPa 1.7 m/s 46.2 mm
08:00 9.5° 1006.8 hPa 0.9 m/s 48.2 mm 9.5° 1006.9 hPa 0.7 m/s 9.4° 1006.0 hPa 3.4 m/s 48.2 mm
11:00 9.6° 1007.5 hPa 1.5 m/s 54.8 mm 9.9° 1007.5 hPa 1.3 m/s 6.1° 1006.9 hPa 3.6 m/s 54.8 mm
14:00 10.1° 1008.1 hPa 2.0 m/s 56.6 mm 10.3° 1008.2 hPa 1.9 m/s 8.1° 1007.3 hPa 3.0 m/s 56.6 mm
17:00 8.7° 1009.2 hPa 2.4 m/s 58.8 mm 8.8° 1009.3 hPa 2.4 m/s 7.6° 1008.3 hPa 2.4 m/s 58.8 mm
20:00 7.0° 1010.4 hPa 2.8 m/s 60.8 mm 7.2° 1010.4 hPa 2.9 m/s 5.3° 1010.5 hPa 1.9 m/s 60.8 mm
23:00 6.5° 1011.0 hPa 3.1 m/s 62.7 mm 6.6° 1011.0 hPa 3.1 m/s 5.4° 1011.7 hPa 2.2 m/s 62.7 mm
 07:24     19:18    Daglengte: 11:54 Zaterdag 26 Sep
02:00 5.9° 1011.5 hPa 3.3 m/s 66.7 mm 6.0° 1011.5 hPa 3.4 m/s 4.9° 1011.8 hPa 2.6 m/s 66.7 mm
05:00 5.6° 1011.8 hPa 3.0 m/s 70.5 mm 5.7° 1011.9 hPa 3.0 m/s 4.9° 1011.4 hPa 2.8 m/s 70.5 mm
08:00 5.3° 1012.2 hPa 2.6 m/s 74.2 mm 5.4° 1012.2 hPa 2.7 m/s 4.7° 1012.1 hPa 1.7 m/s 74.2 mm
11:00 6.1° 1012.2 hPa 2.4 m/s 75.9 mm 6.1° 1012.2 hPa 2.5 m/s 6.1° 1012.0 hPa 1.3 m/s 75.9 mm
14:00 6.6° 1012.2 hPa 2.4 m/s 79.0 mm 6.7° 1012.3 hPa 2.4 m/s 5.7° 1011.2 hPa 2.1 m/s 79.0 mm
17:00 7.0° 1013.2 hPa 2.0 m/s 80.3 mm 7.0° 1013.4 hPa 1.9 m/s 7.2° 1010.6 hPa 2.0 m/s 80.3 mm
20:00 6.9° 1014.3 hPa 1.5 m/s 80.4 mm 7.2° 1014.5 hPa 1.5 m/s 4.2° 1012.2 hPa 1.9 m/s 80.4 mm
23:00 6.5° 1015.1 hPa 1.5 m/s 80.4 mm 7.0° 1015.4 hPa 1.4 m/s 1.6° 1012.9 hPa 2.3 m/s 80.4 mm
 07:25     19:16    Daglengte: 11:51 Zondag 27 Sep
02:00 6.2° 1015.8 hPa 1.4 m/s 80.4 mm 6.7° 1016.2 hPa 1.3 m/s 1.2° 1011.5 hPa 2.3 m/s 80.4 mm
05:00 6.4° 1016.4 hPa 1.4 m/s 80.5 mm 6.8° 1016.9 hPa 1.4 m/s 1.9° 1010.4 hPa 1.5 m/s 80.5 mm
08:00 6.5° 1017.0 hPa 1.4 m/s 80.9 mm 6.9° 1017.6 hPa 1.4 m/s 2.6° 1010.9 hPa 1.7 m/s 80.9 mm
14:00 10.6° 1017.0 hPa 1.5 m/s 81.5 mm 10.7° 1017.8 hPa 1.5 m/s 9.6° 1008.4 hPa 2.0 m/s 81.5 mm
20:00 9.4° 1016.8 hPa 1.0 m/s 83.3 mm 9.7° 1017.4 hPa 0.9 m/s 5.8° 1010.7 hPa 1.6 m/s 83.3 mm
 07:26     19:14    Daglengte: 11:48 Maandag 28 Sep
02:00 6.9° 1016.5 hPa 1.0 m/s 83.4 mm 7.4° 1016.8 hPa 0.9 m/s 1.8° 1012.7 hPa 2.3 m/s 83.4 mm
08:00 8.7° 1017.1 hPa 0.9 m/s 83.5 mm 9.1° 1017.5 hPa 0.7 m/s 4.2° 1012.6 hPa 2.8 m/s 83.5 mm
14:00 17.2° 1015.7 hPa 1.9 m/s 88.0 mm 18.1° 1016.0 hPa 1.8 m/s 7.1° 1012.6 hPa 3.5 m/s 88.0 mm
20:00 13.5° 1017.4 hPa 1.2 m/s 99.8 mm 14.1° 1017.5 hPa 1.1 m/s 7.2° 1016.1 hPa 2.8 m/s 99.8 mm
 07:28     19:12    Daglengte: 11:44 Dinsdag 29 Sep
02:00 9.3° 1018.8 hPa 0.4 m/s 104.8 mm 9.5° 1018.8 hPa 0.3 m/s 6.9° 1019.3 hPa 1.4 m/s 104.8 mm
08:00 9.9° 1019.6 hPa 0.6 m/s 105.1 mm 10.1° 1019.4 hPa 0.6 m/s 7.5° 1021.9 hPa 0.5 m/s 105.1 mm
14:00 11.5° 1021.8 hPa 1.8 m/s 106.1 mm 11.5° 1021.8 hPa 1.8 m/s 106.1 mm
20:00 6.6° 1023.5 hPa 1.1 m/s 106.6 mm 6.6° 1023.5 hPa 1.1 m/s 106.6 mm
 07:29     19:10    Daglengte: 11:41 Woensdag 30 Sep
02:00 3.9° 1024.2 hPa 1.9 m/s 106.6 mm 3.9° 1024.2 hPa 1.9 m/s 106.6 mm
08:00 7.5° 1018.7 hPa 1.6 m/s 0.7 mm
14:00 15.7° 1016.1 hPa 1.2 m/s 0.7 mm
20:00 10.0° 1016.3 hPa 0.6 m/s 2.4 mm
 07:30     19:08    Daglengte: 11:38 Donderdag 01 Okt
02:00 8.8° 1016.4 hPa 1.7 m/s 1.4 mm
08:00 8.3° 1015.8 hPa 1.7 m/s 1.4 mm
14:00 16.5° 1014.0 hPa 1.0 m/s 1.1 mm
20:00 10.9° 1014.9 hPa 0.6 m/s 1.6 mm
 07:32     19:06    Daglengte: 11:34 Vrijdag 02 Okt
02:00 9.3° 1015.7 hPa 1.6 m/s 0.9 mm
08:00 8.8° 1015.3 hPa 1.6 m/s 1.3 mm
14:00 17.4° 1013.7 hPa 0.4 m/s 1.5 mm
20:00 11.2° 1015.0 hPa 0.8 m/s 2.3 mm
 07:33     19:04    Daglengte: 11:31 Zaterdag 03 Okt
02:00 10.1° 1016.6 hPa 1.6 m/s 3.0 mm
08:00 9.8° 1016.9 hPa 1.6 m/s 2.4 mm
14:00 18.6° 1015.4 hPa 0.5 m/s 1.9 mm
20:00 12.6° 1015.5 hPa 1.3 m/s 1.9 mm
 07:34     19:02    Daglengte: 11:28 Zondag 04 Okt
02:00 11.7° 1016.2 hPa 2.0 m/s 2.0 mm
08:00 11.3° 1015.9 hPa 1.6 m/s 1.6 mm
14:00 18.9° 1014.7 hPa 0.2 m/s 1.3 mm
20:00 12.4° 1015.4 hPa 0.5 m/s 3.0 mm
 07:36     19:00    Daglengte: 11:24 Maandag 05 Okt
02:00 11.1° 1016.4 hPa 1.4 m/s 2.5 mm
08:00 10.5° 1016.1 hPa 1.1 m/s 1.8 mm
FMI Hirlam - 7.5 km EWN WRFDA - 12 km DWD ICON - 7 km GFS - 25 km Basiskaart






























































Updatetijd (Europe/Brussels) Resolutie Lengte Stap
FMI Hirlam 07:15, 13:15, 19:15, 01:15 7.5 km 49h 1h
EWN WRFDA 03:45, 09:45, 15:45, 21:45 12 km 73h 1h
DWD ICON 06:15, 12:15, 18:15, 00:15 7 km 75h 1h
GFS 08:15, 14:15, 20:15, 02:15 25 km 237h 3h
30+ mm
25-30 mm
20-25 mm
15-20 mm
10-15 mm
6-10 mm
4-6 mm
2-4 mm
1-2 mm
0.5-1 mm
0.2-0.5 mm
0.1-0.2 mm
30+ mm
25-30 mm
20-25 mm
15-20 mm
10-15 mm
6-10 mm
4-6 mm
2-4 mm
1-2 mm
0.5-1 mm
0.2-0.5 mm
0.1-0.2 mm
Sneeuwval
Natte sneeuw
Hagel
Vorst
30+ mm
25-30 mm
20-25 mm
15-20 mm
10-15 mm
6-10 mm
4-6 mm
2-4 mm
1-2 mm
0.5-1 mm
0.2-0.5 mm
0.1-0.2 mm
Sneeuwval
Natte sneeuw
Hagel
Vorst
Onweer
50 mm
40 mm
30 mm
26 mm
22 mm
18 mm
14 mm
10 mm
9 mm
8 mm
7 mm
6 mm
5 mm
4.5 mm
4 mm
3.5 mm
3 mm
2.5 mm
2 mm
1.5 mm
1 mm
0.8 mm
0.6 mm
0.4 mm
0.2 mm
0.05 mm
35°
30°
25°
20°
15°
10°
-5°
-10°
-15°
-20°
-25°
-30°
-35°
33> m/s
29 m/s
25 m/s
21 m/s
17 m/s
14 m/s
11 m/s
8 m/s
5 m/s
3 m/s
0 m/s
2600 J/kg
2400 J/kg
2200 J/kg
2000 J/kg
1800 J/kg
1600 J/kg
1400 J/kg
1200 J/kg
1000 J/kg
800 J/kg
600 J/kg
400 J/kg
200 J/kg
70 dBZ
65 dBZ
60 dBZ
55 dBZ
50 dBZ
45 dBZ
40 dBZ
35 dBZ
30 dBZ
25 dBZ
20 dBZ
15 dBZ
10 dBZ
5 dBZ
-1 K
-2 K
-3 K
-4 K
-5 K
-6 K
-7 K
-8 K
-9 K
950 m²/s²
900 m²/s²
850 m²/s²
800 m²/s²
750 m²/s²
700 m²/s²
650 m²/s²
600 m²/s²
550 m²/s²
500 m²/s²
450 m²/s²
400 m²/s²
350 m²/s²
300 m²/s²
250 m²/s²
200 m²/s²
150 m²/s²
100 m²/s²
46 m/s
44 m/s
42 m/s
40 m/s
38 m/s
36 m/s
34 m/s
32 m/s
30 m/s
28 m/s
26 m/s
24 m/s
22 m/s
20 m/s
16 m/s
12 m/s
8 m/s
4 m/s
30 m/s
28 m/s
26 m/s
24 m/s
22 m/s
20 m/s
18 m/s
16 m/s
14 m/s
12 m/s
10 m/s
8 m/s
6 m/s
4 m/s
2 m/s
3.0
2.8
2.6
2.4
2.2
2.0
1.8
1.6
1.4
1.2
1.0
0.8
0.6
0.4
0.2
15
14
13
12
11
10
9
8
7
6
5
4
3
2
1
90%
80%
70%
60%
50%
40%
30%
20%
10%
42
40
38
36
34
32
30
28
26
24
22
20
18
16
14
12
90+ cm
80-90 cm
70-80 cm
60-70 cm
50-60 cm
40-50 cm
30-40 cm
20-30 cm
10-20 cm
1-10 cm
Sneeuwval
Natte sneeuw
Regen
>120 mm
115 mm
110 mm
105 mm
100 mm
95 mm
90 mm
85 mm
80 mm
75 mm
70 mm
65 mm
60 mm
55 mm
50 mm
45 mm
45 mm
40 mm
35 mm
30 mm
25 mm
20 mm
15 mm
10 mm
5 mm
0.1 mm
960 hPa
880 hPa
800 hPa
720 hPa
640 hPa
560 hPa
584 gpdm
568 gpdm
552 gpdm
536 gpdm
520 gpdm